Regional Weather Roundup
Issued by NWS

Home | Current Version | Previous Version | Text Only | Print | Product List | Glossary Off
Versions: 1 2 3 4 5 6 7 8 9 10 11 12 13 14 15 16 17 18 19 20 21 22 23 24 25 26 27 28 29 30 31 32 33 34 35 36 37 38 39 40 41 42 43 44 45 46 47 48 49 50

000
ASUS43 KLOT 272306
RWRIL

ILLINOIS REGIONAL WEATHER ROUNDUP
NATIONAL WEATHER SERVICE CHICAGO/ROMEOVILLE IL
600 PM CDT WED AUG 27 2014

NOTE: "FAIR" INDICATES FEW OR NO CLOUDS BELOW 12,000 FEET WITH NO
SIGNIFICANT WEATHER AND/OR OBSTRUCTIONS TO VISIBILITY.

* THESE STATIONS ARE NOT UNDER NWS QUALITY CONTROL. THEY ALSO MAY NOT
  REPORT WEATHER SUCH AS PRECIPITATION OR FOG.

ILZ001-002-007-009-015-016-024-280000-
NORTHWEST ILLINOIS

CITY           SKY/WX    TMP DP  RH WIND       PRES   REMARKS
MOLINE         CLOUDY    76  62  62 NE8       30.08F
STERLING*      CLOUDY    75  63  64 NE8       30.09F
SAVANNA*       CLOUDY    78  58  51 NE9       30.09F
$$

ILZ003-004-008-010-011-017-018-280000-
NORTH CENTRAL ILLINOIS

CITY           SKY/WX    TMP DP  RH WIND       PRES   REMARKS
ROCKFORD       CLOUDY    76  60  57 SE3       30.12F
FREEPORT*      CLOUDY    75  64  68 NE5       30.14F
ROCHELLE*      CLOUDY    74  62  65 N5        30.12F
DE KALB*       CLOUDY    72  62  69 NE3       30.12F
PERU*          CLOUDY    78  63  59 NE9       30.09F HX  80
$$

ILZ005-006-012>014-019>023-280000-
NORTHEAST ILLINOIS

CITY           SKY/WX    TMP DP  RH WIND       PRES   REMARKS
CHICAGO-OHARE  CLOUDY    73  60  63 NE9       30.12F
CHICAGO-MIDWAY CLOUDY    74  64  71 E9        30.12S
AURORA         CLOUDY    76  64  66 N6        30.11F
LANSING*       PTSUNNY   72  62  72 NE8       30.12F
JOLIET*        PTSUNNY   75  63  64 E13       30.11S
WAUKEGAN       CLOUDY    69  61  75 NE8       30.12F
DUPAGE AIRPORT CLOUDY    74  64  71 E10       30.11S
KANKAKEE*      PTSUNNY   76  65  69 NE10      30.10S
WHEELING       CLOUDY    72  63  73 E7        30.13F
MORRIS*        PTSUNNY   78  66  66 CALM      30.09F HX  80
ROMEOVILLE*    PTSUNNY   74  63  69 E13       30.11S
NORTHERLY ISL    N/A     70  63  78 NE9         N/A
$$

LMZ740>746-280000-
SOUTHERN LAKE MICHIGAN

STATION/POSITION SKY/WX   TEMP    WIND        PRES    VSBY  WAVE
                          AIR SEA DIR/SP/G                  HT/PER
                          (F)     (DEG/KT/KT) (MB)    (MI)  (FT/S)
SOUTHERN BUOY              67 70   10/ 12/ 14 1020.4F         1
WAUKEGAN HARBOR            69      60/  8/ 10   N/A
HARRISON CRIB              69      40/ 11/ 13   N/A
BURNHAM HARBOR             71      50/  7/ 12   N/A
CALUMET HARBOR             71      40/  8/ 12 1018.9F
MICHIGAN CITY              70      10/ 13/ 15   N/A
MICHIGAN CITY 6N           71 74   40/ 12/ 16   N/A           2/ 3
ST. JOSEPH                 70 73  360/ 14/ 16   N/A           2/ 3
$$

ILZ025>027-034>036-040-047-049-050-058-095>099-280000-
WEST-CENTRAL ILLINOIS

CITY           SKY/WX    TMP DP  RH WIND       PRES   REMARKS
QUINCY         PTSUNNY   81  71  71 NE6       30.06F HX  85
GALESBURG*     PTSUNNY   81  69  68 NE8       30.08F HX  84
MACOMB*        PTSUNNY   79  70  73 NE5       30.09F HX  81
JACKSONVILLE*  MOSUNNY   83  74  74 NE8       30.06F HX  89
PITTSFIELD*    MOSUNNY   83  72  69 NE8       30.08R HX  88
$$

ILZ028>032-037-038-041>044-048-051>054-059>061-280000-
CENTRAL ILLINOIS

CITY           SKY/WX    TMP DP  RH WIND       PRES   REMARKS
PONTIAC        PTSUNNY   81  70  69 N3        30.08F HX  84
DECATUR        CLOUDY    80  74  81 N6        30.06F HX  85
PEORIA         PTSUNNY   83  69  62 NE9       30.07F HX  86
LACON*         CLOUDY    79  66  64 NE3       30.07F HX  81
LINCOLN*       PTSUNNY   83  71  67 N6        30.03F HX  87
SPRINGFIELD    MOSUNNY   82  73  74 NE8       30.05F HX  87
TAYLORVILLE    CLOUDY    77  68  73 N5        30.05S
$$

ILZ033-039-045-046-055>057-062-063-280000-
EAST-CENTRAL ILLINOIS

CITY           SKY/WX    TMP DP  RH WIND       PRES   REMARKS
CHAMPAIGN      CLOUDY    81  71  71 N8        30.07F HX  85
DANVILLE*      MOSUNNY   77  71  80 N8        30.05F
RANTOUL*       PTSUNNY   83  68  61 NE5       30.09F HX  86
MATTOON        LGT RAIN  78  72  81 N3        30.04F HX  80
PARIS*         PTSUNNY   78  73  83 CALM      30.06F HX  81
$$

ILZ079-100>102-280000-
SOUTHWEST ILLINOIS

CITY           SKY/WX    TMP DP  RH WIND       PRES   REMARKS
ALTON          PTSUNNY   82  70  65 SW12G23   30.08R HX  86
BELLEVILLE     CLOUDY    82  73  74 NW8       30.03R THUNDER HX  88
SPARTA*        PTSUNNY   86  79  79 CALM      30.04R HX  99
$$

ILZ064>066-069>071-074>076-080>082-084>086-088>090-092>094-280000-
SOUTH-CENTRAL ILLINOIS

CITY           SKY/WX    TMP DP  RH WIND       PRES   REMARKS
CARBONDALE     SUNNY     91  74  57 N3        30.02S HX 100
CAIRO*         SUNNY     91  73  55 NE3       30.01F HX 100
EFFINGHAM*     TSTM      82  66  59 N12G21    30.05R HX  84
MARION         MOSUNNY   93  72  49 NE7       30.02S HX 100
MT. VERNON     MOSUNNY   77  70  78 NE7       30.04S
SALEM*         MOSUNNY   88  77  71 CALM      30.03S HX 100
METROPOLIS*    SUNNY     91  74  56 CALM      30.00F HX 100
$$

ILZ067-068-072-073-078-083-087-091-280000-
SOUTHEAST ILLINOIS

CITY           SKY/WX    TMP DP  RH WIND       PRES   REMARKS
LAWRENCEVILLE  MOSUNNY   86  75  69 N6        30.02F HX  95
FLORA*         MOSUNNY   80  68  66 E3        30.04S HX  83
FAIRFIELD*     MOSUNNY   82  77  83 NE13G20   30.04R THUNDER HX  91
HARRISBURG*    SUNNY     91  72  54 CALM      30.02F HX  98
ROBINSON*      MOSUNNY   85  76  73 N3        30.04S HX  95
CARMI*           N/A     90  78  68 N3        30.01S HX 103
$$

ABBREVIATIONS USED IN REMARKS
   TC - TEMPERATURE IN CELSIUS
  WCI - WIND CHILL INDEX
   HX - HEAT INDEX
  VSB - VISIBILITY
$$




USA.gov is the U.S. government's official web portal to all federal, state and local government web resources and services.